Flag for U.S.A. Weather past 2 weeks in Milwaukee, Wisconsin, U.S.A.

Now
54 °F

Sunny.


Feels Like: 50 °F
Forecast: 35 / 50 °F
Wind: 10 mph from East

Location: Milwaukee / Timmerman

Current Time: Apr 27, 2015 at 2:05:22 PM

Latest Report: Apr 27, 2015 at 12:45 PM


Visibility: 10 mi

Pressure: 30.13 "Hg

Humidity: 44%

Dew point: 32 °F

Location of MilwaukeeLocation

Historic Weather in Milwaukee — Graph

°F

Milwaukee temperature yesterday

Maximum temperature yesterday: 54 °F (at 11:45 AM)
Minimum temperature yesterday: 32 °F (at 5:15 AM)
Average temperature yesterday: 40 °F

Past Weeks' High & Low Weather Summary

 TemperatureHumidityPressure
High73 °F (Apr 17, 11:45 AM)94% (Apr 20, 7:45 AM)30.34 "Hg (Apr 20, 7:45 AM)
Low28 °F (Apr 23, 4:55 AM)12% (Apr 14, 4:45 PM)29.19 "Hg (Apr 20, 4:15 AM)
Average44 °F60%29.94 "Hg
* Reported Apr 12 12:45 PM — Apr 27 12:45 PM, Milwaukee, Weather by CustomWeather, © 2015

Note: Actual official high and low records may vary slightly from our data, if they occured in-between our weather recording intervals... More about our weather records

Advertising

Milwaukee weather history for previous 24 hours

 ConditionsComfort  
Time TempWeatherWind HumidityBarometerVisibility
12:45 PM
Mon, Apr 27
54 °FSunny.10 mph44%30.13 "Hg10 mi
11:45 AM54 °FScattered clouds.8 mph41%30.13 "Hg10 mi
10:45 AM54 °FScattered clouds.14 mph41%30.13 "Hg10 mi
9:45 AM52 °FSunny.10 mph47%30.13 "Hg10 mi
8:45 AM48 °FSunny.7 mph54%30.12 "Hg10 mi
7:45 AM45 °FSunny.8 mph57%30.11 "Hg10 mi
7:15 AM41 °FSunny.9 mph66%30.10 "Hg10 mi
6:55 AM39 °FSunny.7 mph70%30.09 "Hg10 mi
6:35 AM37 °FClear.5 mph75%30.09 "Hg10 mi
6:15 AM37 °FClear.7 mph70%30.09 "Hg10 mi
5:55 AM37 °FClear.8 mph70%30.09 "Hg10 mi
5:35 AM36 °FClear.6 mph75%30.08 "Hg10 mi
5:15 AM36 °FClear.7 mph75%30.08 "Hg10 mi
4:55 AM36 °FClear.8 mph75%30.08 "Hg10 mi
4:35 AM36 °FClear.8 mph75%30.09 "Hg10 mi
4:15 AM34 °FClear.6 mph81%30.09 "Hg10 mi
3:55 AM34 °FClear.6 mph81%30.09 "Hg10 mi
3:35 AM36 °FClear.No wind81%30.09 "Hg10 mi
3:15 AM36 °FClear.3 mph75%30.09 "Hg10 mi
2:55 AM36 °FClear.3 mph75%30.09 "Hg10 mi
2:35 AM36 °FClear.No wind75%30.09 "Hg10 mi
2:15 AM36 °FClear.5 mph75%30.09 "Hg10 mi
1:55 AM36 °FClear.5 mph75%30.09 "Hg10 mi
1:35 AM36 °FClear.5 mph75%30.09 "Hg10 mi
1:15 AM36 °FClear.5 mph75%30.10 "Hg10 mi
12:55 AM37 °FClear.3 mph75%30.09 "Hg10 mi
12:35 AM39 °FClear.5 mph70%30.09 "Hg10 mi
12:15 AM39 °FClear.6 mph70%30.09 "Hg10 mi
11:55 PM
Sun, Apr 26
41 °FClear.6 mph66%30.08 "Hg10 mi
11:35 PM41 °FClear.7 mph66%30.08 "Hg10 mi
11:15 PM41 °FClear.10 mph66%30.08 "Hg10 mi
10:15 PM41 °FClear.8 mph61%30.07 "Hg10 mi
9:55 PM41 °FClear.8 mph61%30.07 "Hg10 mi
9:35 PM43 °FClear.7 mph57%30.06 "Hg10 mi
9:15 PM43 °FClear.6 mph57%30.06 "Hg10 mi
8:45 PM43 °FSunny.8 mph49%30.06 "Hg10 mi
7:45 PM45 °FSunny.7 mph42%30.04 "Hg10 mi
5:45 PM52 °FSunny.12 mph28%30.03 "Hg10 mi
4:45 PM52 °FSunny.13 mph28%30.03 "Hg10 mi
3:45 PM54 °FSunny.12 mph28%30.03 "Hg10 mi
Weather by CustomWeather, © 2015

See weather overviewHow to use our weather pages